Location: Mesa Vista Observatory
(35.5777°N, 105.6987°W)
Time: 07:25:18
(UTC-06:00)

Transit 4A - Visible Passes

Search period start: 26 September 2020 00:00
Search period end: 06 October 2020 00:00
Orbit: 863 x 982 km, 66.8° (Epoch: 25 September)

Date Brightness Start Highest point End Pass type
(mag) Time Alt. Az. Time Alt. Az. Time Alt. Az.
30 Sep 11.0 05:39:44 10° NE 05:40:13 10° NE 05:40:42 10° NE visible
01 Oct 10.6 05:46:37 10° N 05:50:04 15° NE 05:53:30 10° ENE visible
02 Oct 10.4 05:55:05 10° N 05:59:49 21° NE 06:04:29 10° E visible
03 Oct 9.9 06:03:54 10° N 06:09:27 30° NE 06:14:54 10° ESE visible
03 Oct 10.2 21:06:51 10° SSW 21:06:54 10° SSW 21:06:54 10° SSW visible
04 Oct 9.3 06:12:54 10° NNW 06:18:58 43° ENE 06:24:56 10° SE visible
04 Oct 9.7 19:34:15 10° SE 19:34:43 11° ESE 19:34:43 11° ESE visible
04 Oct 9.4 21:16:01 10° SSW 21:18:25 25° SSW 21:18:25 25° SSW visible
05 Oct 10.8 04:38:36 10° NNE 04:40:44 12° NE 04:42:51 10° ENE visible
05 Oct 8.6 06:22:02 10° NNW 06:28:25 63° ENE 06:34:39 10° SE visible
05 Oct 9.0 19:41:20 10° SSE 19:45:40 21° ESE 19:46:28 20° E visible
05 Oct 8.7 21:25:31 10° SW 21:30:11 47° WSW 21:30:11 47° WSW visible
